Location: Tuttlingen
(47.9853°N, 8.8165°E)
Time: 17:05:12
(UTC+01:00)

Tiangong 2 - Visible Passes

Search period start: 19 November 2017 00:00
Search period end: 29 November 2017 00:00
Orbit: 386 x 391 km, 42.8° (Epoch: 19 November)

Date Brightness Start Highest point End Pass type
(mag) Time Alt. Az. Time Alt. Az. Time Alt. Az.
25 Nov 4.6 07:11:08 10° SSE 07:11:45 10° SSE 07:12:20 10° SE visible
27 Nov 4.0 06:49:50 10° SSW 06:51:51 16° SSE 06:53:52 10° ESE visible
28 Nov 4.2 05:52:57 10° SSE 05:53:51 11° SSE 05:54:46 10° SE visible
